Location: Santaluz Observatory
(32.9930°N, 117.1510°W)
Time: 13:20:46
(UTC-07:00)

Hubble Space Telescope - Visible Passes

Search period start: 24 June 2016 00:00
Search period end: 04 July 2016 00:00
Orbit: 539 x 543 km, 28.5° (Epoch: 24 June)

Date Brightness Start Highest point End Pass type
(mag) Time Alt. Az. Time Alt. Az. Time Alt. Az.
24 Jun 1.5 03:50:42 36° S 03:50:42 36° S 03:54:03 10° ESE visible
25 Jun 2.2 03:42:06 24° SSE 03:42:06 24° SSE 03:44:13 10° SE visible
26 Jun 3.1 03:33:44 13° SE 03:33:44 13° SE 03:34:21 10° SE visible
26 Jun 2.8 05:09:56 10° SW 05:11:25 12° SSW 05:12:54 10° S visible
28 Jun 3.0 21:55:15 10° SW 21:56:00 14° SSW 21:56:00 14° SSW visible
29 Jun 2.1 21:45:19 10° SW 21:47:41 24° SSW 21:47:41 24° SSW visible
30 Jun 1.5 21:35:26 10° SW 21:39:08 33° S 21:39:08 33° S visible
01 Jul 1.4 21:25:36 10° WSW 21:29:25 37° S 21:30:22 32° SE visible
02 Jul 1.3 21:15:48 10° WSW 21:19:41 40° S 21:21:24 26° ESE visible
02 Jul 3.6 22:56:46 10° WSW 22:56:48 10° WSW 22:56:48 10° WSW visible
03 Jul 1.2 21:06:02 10° WSW 21:09:57 43° S 21:12:19 21° ESE visible
03 Jul 3.3 22:47:05 10° WSW 22:47:42 14° WSW 22:47:42 14° WSW visible
